Location: Ferma
(41.9500°N, 44.5167°E)
Time: 10:26:00
(UTC+00:00)

NOAA 16 DEB - Visible Passes

Search period start: 17 August 2022 00:00
Search period end: 27 August 2022 00:00
Orbit: 843 x 860 km, 98.7° (Epoch: 16 August)

Date Brightness Start Highest point End Pass type
(mag) Time Alt. Az. Time Alt. Az. Time Alt. Az.
17 Aug ? 16:28:13 10° E 16:31:44 18° ENE 16:35:16 10° NNE visible
17 Aug ? 18:09:06 31° S 18:11:51 71° WSW 18:17:23 10° NNW visible
18 Aug ? 17:57:28 31° SSE 18:00:15 88° WSW 18:05:50 10° NNW visible
18 Aug ? 19:40:04 10° WSW 19:41:42 11° W 19:43:18 10° WNW visible
19 Aug ? 17:45:51 30° SSE 17:48:40 75° ENE 17:54:12 10° N visible
19 Aug ? 19:27:52 12° WSW 19:29:56 15° W 19:32:57 10° WNW visible
20 Aug ? 17:34:12 27° SE 17:37:07 59° ENE 17:42:33 10° N visible
20 Aug ? 19:16:13 16° WSW 19:18:12 19° W 19:22:02 10° NW visible
21 Aug ? 17:22:33 24° SE 17:25:34 47° ENE 17:30:51 10° N visible
21 Aug ? 19:04:35 20° WSW 19:06:29 24° W 19:10:53 10° NW visible
22 Aug ? 17:10:55 21° ESE 17:14:02 38° ENE 17:19:06 10° N visible
22 Aug ? 18:52:57 25° SW 18:54:47 30° W 18:59:36 10° NW visible
23 Aug ? 16:59:17 17° ESE 17:02:32 31° ENE 17:07:18 10° N visible
23 Aug ? 18:41:18 30° SW 18:43:07 37° W 18:48:14 10° NNW visible
24 Aug ? 16:47:38 14° ESE 16:51:03 25° ENE 16:55:26 10° N visible
24 Aug ? 18:29:40 35° SSW 18:31:27 47° W 18:36:46 10° NNW visible
25 Aug ? 16:36:00 11° ESE 16:39:34 20° ENE 16:43:30 10° NNE visible
25 Aug ? 18:18:01 41° SSW 18:19:48 60° WSW 18:25:16 10° NNW visible
26 Aug ? 16:24:48 10° E 16:28:07 16° ENE 16:31:26 10° NNE visible
26 Aug ? 18:06:23 44° S 18:08:10 76° WSW 18:13:43 10° NNW visible
